Perry, FL

10:00 PM EST on December 04, 2016 (GMT -0500)
Perry

Weather History for K40J - November, 2013

Change the Weather History Date:

Friday, November 22, 2013

  Actual Average (KCTY) Record (KCTY)
Temperature  
Mean Temperature 72 °F 61 °F  
Max Temperature 81 °F 74 °F 83 °F (2013)
Min Temperature 62 °F 48 °F 25 °F (2000)
Degree Days  
Heating Degree Days 0 6  
Month to date heating degree days 85  
Since 1 July heating degree days 117  
Cooling Degree Days 6 1  
Month to date cooling degree days 50  
Year to date cooling degree days 2593  
Growing Degree Days 22 (Base 50)    
Moisture  
Dew Point 64 °F    
Average Humidity 84    
Maximum Humidity 100    
Minimum Humidity 58    
Precipitation  
Precipitation 0.03 in 0.10 in 0.91 in (2007)
Month to date precipitation 1.81  
Year to date precipitation 45.04  
Sea Level Pressure  
Sea Level Pressure 30.21 in    
Wind  
Wind Speed 4 mph (ENE)    
Max Wind Speed 8 mph    
Max Gust Speed -    
Visibility 8 miles    
Events      
T = Trace of Precipitation, MM = Missing Value Source: NWS Daily Summary

Daily Weather History Graph

Daily Weather History Graph

Search for Another Location

Airport or City:

Trip Planner

Search our weather history database for the weather conditions in past years. The results will help you decide how hot, cold, wet, or windy it might be!

Date:

Astronomy

Nov. 22, 2013 Rise Set
Actual Time 7:05 AM EST 5:35 PM EST
Civil Twilight 6:39 AM EST 6:00 PM EST
Nautical Twilight 6:10 AM EST 6:30 PM EST
Astronomical Twilight 5:41 AM EST 6:58 PM EST
Moon 10:00 PM EST (11/22) 10:52 AM EST (11/22)
Length of Visible Light 11h 21m
Length of Day
10h 29m
Waning Gibbous, 78% of the Moon is Illuminated
Nov 22
Waning Gibbous
Nov 25
Last Quarter
Dec 2
New
Dec 9
First Quarter
Dec 17
Full

Hourly Weather History & Observations

Time (EST) Temp. Heat Index Dew Point Humidity Pressure Visibility Wind Dir Wind Speed Gust Speed Precip Events Conditions
12:15 AM 62.6 °F - 60.8 °F 94% 30.26 in 10.0 mi NE 5.8 mph - N/A   Overcast
12:35 AM 62.6 °F - 60.8 °F 94% 30.26 in 10.0 mi NE 4.6 mph - N/A   Overcast
12:53 AM 64.9 °F - 61.0 °F 87% 30.24 in - NE 5.8 mph - N/A   Unknown
12:55 AM 62.6 °F - 60.8 °F 94% 30.26 in 10.0 mi ENE 4.6 mph - N/A   Overcast
1:15 AM 62.6 °F - 60.8 °F 94% 30.25 in 10.0 mi ENE 5.8 mph - N/A   Overcast
1:35 AM 62.6 °F - 60.8 °F 94% 30.25 in 10.0 mi ENE 4.6 mph - N/A   Overcast
1:53 AM 64.9 °F - 61.0 °F 87% 30.23 in - ENE 5.8 mph - N/A   Unknown
1:55 AM 62.6 °F - 60.8 °F 94% 30.24 in 7.0 mi East 3.5 mph - N/A   Overcast
2:15 AM 62.6 °F - 60.8 °F 94% 30.25 in 7.0 mi ENE 5.8 mph - N/A   Overcast
2:35 AM 62.6 °F - 60.8 °F 94% 30.25 in 7.0 mi NE 3.5 mph - N/A   Overcast
2:53 AM 64.9 °F - 61.0 °F 87% 30.23 in - NE 4.6 mph - N/A   Unknown
2:55 AM 62.6 °F - 60.8 °F 94% 30.24 in 5.0 mi NE 6.9 mph - N/A   Overcast
3:15 AM 62.6 °F - 60.8 °F 94% 30.24 in 5.0 mi NE 3.5 mph - N/A   Overcast
3:35 AM 62.6 °F - 60.8 °F 94% 30.23 in 4.0 mi NNE 4.6 mph - N/A   Overcast
3:53 AM 64.0 °F - 61.0 °F 90% 30.22 in - NE 5.8 mph - N/A   Unknown
4:15 AM 62.6 °F - 60.8 °F 94% 30.22 in 2.5 mi NE 6.9 mph - N/A   Overcast
4:35 AM 62.6 °F - 60.8 °F 94% 30.22 in 2.0 mi NE 5.8 mph - N/A   Overcast
4:53 AM 64.0 °F - 62.1 °F 93% 30.21 in - NE 5.8 mph - N/A   Unknown
5:15 AM 62.6 °F - 62.6 °F 100% 30.23 in 2.0 mi NE 4.6 mph - N/A   Overcast
5:35 AM 62.6 °F - 62.6 °F 100% 30.23 in 2.5 mi NE 5.8 mph - N/A   Overcast
5:53 AM 64.0 °F - 62.1 °F 93% 30.22 in - ENE 5.8 mph - N/A   Unknown
6:15 AM 62.6 °F - 62.6 °F 100% 30.23 in 2.0 mi NNE 4.6 mph - N/A   Overcast
6:35 AM 62.6 °F - 62.6 °F 100% 30.24 in 2.5 mi NE 3.5 mph - N/A   Overcast
6:53 AM 64.0 °F - 62.1 °F 93% 30.23 in - NNE 3.5 mph - N/A   Unknown
7:15 AM 62.6 °F - 62.6 °F 100% 30.25 in 1.8 mi NNE 3.5 mph - N/A   Overcast
7:35 AM 62.6 °F - 62.6 °F 100% 30.25 in 1.5 mi NNE 6.9 mph - N/A   Overcast
7:53 AM 64.0 °F - 62.1 °F 93% 30.25 in - Variable 3.5 mph - N/A   Unknown
7:55 AM 62.6 °F - 62.6 °F 100% 30.26 in 0.8 mi ENE 3.5 mph - N/A   Overcast
8:15 AM 62.6 °F - 62.6 °F 100% 30.26 in 0.8 mi ENE 4.6 mph - N/A   Overcast
8:35 AM 64.4 °F - 62.6 °F 94% 30.27 in 1.0 mi NNE 4.6 mph - N/A   Overcast
8:53 AM 64.9 °F - 63.0 °F 93% 30.26 in - NE 3.5 mph - N/A   Unknown
8:55 AM 64.4 °F - 62.6 °F 94% 30.27 in 1.2 mi NE 4.6 mph - N/A   Overcast
9:15 AM 64.4 °F - 62.6 °F 94% 30.27 in 2.0 mi NE 3.5 mph - N/A   Overcast
9:35 AM 64.4 °F - 64.4 °F 100% 30.28 in 5.0 mi NE 5.8 mph - N/A   Overcast
9:53 AM 68.0 °F - 64.0 °F 87% 30.26 in - NE 8.1 mph - N/A   Unknown
9:55 AM 66.2 °F - 64.4 °F 94% 30.28 in 10.0 mi ENE 4.6 mph - N/A   Overcast
10:15 AM 68.0 °F - 64.4 °F 88% 30.28 in 10.0 mi NE 4.6 mph - N/A   Overcast
10:35 AM 69.8 °F - 64.4 °F 83% 30.28 in 10.0 mi ENE 6.9 mph - N/A   Overcast
10:53 AM 73.0 °F - 64.0 °F 73% 30.26 in - NE 8.1 mph - 0.01 in   Unknown
10:55 AM 71.6 °F - 64.4 °F 78% 30.27 in 10.0 mi NE 6.9 mph - N/A   Overcast
11:15 AM 71.6 °F - 64.4 °F 78% 30.27 in 10.0 mi ENE 5.8 mph - N/A   Mostly Cloudy
11:35 AM 73.4 °F - 66.2 °F 78% 30.26 in 10.0 mi ESE 8.1 mph - N/A   Scattered Clouds
11:53 AM 75.9 °F - 64.9 °F 69% 30.23 in - Variable 5.8 mph - 0.01 in   Unknown
11:55 AM 75.2 °F - 64.4 °F 69% 30.24 in 10.0 mi East 6.9 mph - N/A   Scattered Clouds
12:15 PM 77.0 °F - 66.2 °F 69% 30.23 in 10.0 mi East 4.6 mph - N/A   Scattered Clouds
12:35 PM 77.0 °F - 66.2 °F 69% 30.21 in 10.0 mi East 5.8 mph - N/A   Scattered Clouds
12:53 PM 79.0 °F - 66.0 °F 64% 30.19 in - ESE 4.6 mph - 0.01 in   Unknown
12:55 PM 78.8 °F - 66.2 °F 65% 30.20 in 10.0 mi ESE 6.9 mph - N/A   Scattered Clouds
1:15 PM 78.8 °F - 66.2 °F 65% 30.19 in 10.0 mi ESE 6.9 mph - N/A   Clear
1:35 PM 78.8 °F - 66.2 °F 65% 30.18 in 10.0 mi ENE 4.6 mph - N/A   Scattered Clouds
1:53 PM 81.0 °F 83.0 °F 66.0 °F 60% 30.17 in - SE 8.1 mph - N/A   Unknown
1:55 PM 80.6 °F 82.3 °F 64.4 °F 58% 30.18 in 10.0 mi SSE 5.8 mph - N/A   Mostly Cloudy
2:35 PM 78.8 °F - 64.4 °F 61% 30.17 in 10.0 mi East 3.5 mph - N/A   Scattered Clouds
2:53 PM 79.0 °F - 64.9 °F 62% 30.15 in - Variable 4.6 mph - N/A   Unknown
2:55 PM 78.8 °F - 64.4 °F 61% 30.16 in 10.0 mi East 4.6 mph - N/A   Scattered Clouds
3:35 PM 80.6 °F 82.3 °F 64.4 °F 58% 30.16 in 10.0 mi ESE 4.6 mph - N/A   Clear
3:53 PM 81.0 °F 82.7 °F 64.9 °F 58% 30.14 in - ESE 6.9 mph - N/A   Unknown
3:55 PM 78.8 °F - 64.4 °F 61% 30.16 in 10.0 mi ESE 5.8 mph - N/A   Clear
4:15 PM 78.8 °F - 64.4 °F 61% 30.16 in 10.0 mi SE 4.6 mph - N/A   Clear
4:35 PM 78.8 °F - 64.4 °F 61% 30.17 in 10.0 mi ENE 3.5 mph - N/A   Clear
4:53 PM 80.1 °F 81.9 °F 64.9 °F 60% 30.15 in - Calm Calm - N/A   Unknown
4:55 PM 77.0 °F - 64.4 °F 65% 30.16 in 10.0 mi Calm Calm - N/A   Scattered Clouds
5:15 PM 75.2 °F - 66.2 °F 73% 30.16 in 10.0 mi Calm Calm - N/A   Clear
5:35 PM 73.4 °F - 64.4 °F 73% 30.17 in 10.0 mi Calm Calm - N/A   Clear
5:53 PM 73.0 °F - 66.0 °F 79% 30.16 in - Calm Calm - N/A   Unknown
5:55 PM 71.6 °F - 66.2 °F 83% 30.17 in 10.0 mi Calm Calm - N/A   Clear
6:15 PM 69.8 °F - 66.2 °F 88% 30.17 in 10.0 mi Calm Calm - N/A   Clear
6:35 PM 69.8 °F - 66.2 °F 88% 30.18 in 10.0 mi Calm Calm - N/A   Clear
6:53 PM 68.0 °F - 64.0 °F 87% 30.17 in - Calm Calm - N/A   Unknown
6:55 PM 68.0 °F - 64.4 °F 88% 30.18 in 10.0 mi Calm Calm - N/A   Scattered Clouds
7:35 PM 68.0 °F - 66.2 °F 94% 30.18 in 10.0 mi Calm Calm - N/A   Overcast
7:53 PM 72.0 °F - 66.0 °F 81% 30.17 in - Calm Calm - N/A   Unknown
7:55 PM 69.8 °F - 66.2 °F 88% 30.18 in 10.0 mi Calm Calm - N/A   Overcast
8:15 PM 69.8 °F - 66.2 °F 88% 30.18 in 10.0 mi Calm Calm - N/A   Overcast
8:35 PM 69.8 °F - 66.2 °F 88% 30.18 in 10.0 mi Calm Calm - N/A   Overcast
8:53 PM 70.0 °F - 64.9 °F 84% 30.16 in - Calm Calm - N/A   Unknown
8:55 PM 69.8 °F - 66.2 °F 88% 30.17 in 10.0 mi Calm Calm - N/A   Mostly Cloudy
9:15 PM 69.8 °F - 64.4 °F 83% 30.17 in 10.0 mi Calm Calm - N/A   Overcast
9:35 PM 68.0 °F - 64.4 °F 88% 30.16 in 10.0 mi Calm Calm - N/A   Mostly Cloudy
9:53 PM 69.1 °F - 64.9 °F 87% 30.14 in - Calm Calm - N/A   Unknown
9:55 PM 68.0 °F - 64.4 °F 88% 30.16 in 10.0 mi Calm Calm - N/A   Scattered Clouds
10:15 PM 66.2 °F - 64.4 °F 94% 30.16 in 10.0 mi Calm Calm - N/A   Scattered Clouds
10:35 PM 68.0 °F - 64.4 °F 88% 30.16 in 10.0 mi Calm Calm - N/A   Scattered Clouds
10:53 PM 66.0 °F - 63.0 °F 90% 30.15 in - Calm Calm - N/A   Unknown
10:55 PM 64.4 °F - 62.6 °F 94% 30.16 in 7.0 mi Calm Calm - N/A   Scattered Clouds
11:15 PM 64.4 °F - 62.6 °F 94% 30.16 in 0.8 mi Calm Calm - N/A   Mostly Cloudy
11:35 PM 64.4 °F - 62.6 °F 94% 30.16 in 7.0 mi Calm Calm - N/A   Clear
11:53 PM 64.9 °F - 62.1 °F 90% 30.15 in - Calm Calm - N/A   Unknown
11:55 PM 62.6 °F - 60.8 °F 94% 30.16 in 2.0 mi Calm Calm - N/A   Clear